Flag for Moldova Weather past 2 weeks in Tiraspol, Moldova

Now
34 °F

Drizzle. Fog.


Feels Like: 29 °F
Forecast: 35 / 39 °F
Wind: 6 mph from Northeast

Location: Chisinau International Airport

Current Time: Jan 25, 2015 at 9:20:53 PM

Latest Report: Jan 25, 2015 at 9:00 PM


Visibility: 0 mi

Pressure: 30.04 "Hg

Humidity: 93%

Dew point: 32 °F

Location of TiraspolLocation

Historic Weather in Tiraspol — Graph

°F

Tiraspol temperature yesterday

Maximum temperature yesterday: 39 °F (at 12:00 AM)
Minimum temperature yesterday: 30 °F (at 9:30 PM)
Average temperature yesterday: 34 °F

Past Weeks' High & Low Weather Summary

 TemperatureHumidityPressure
High48 °F (Jan 23, 1:30 PM)100% (Jan 23, 7:30 AM)30.30 "Hg (Jan 23, 7:30 AM)
Low21 °F (Jan 14, 7:30 AM)39% (Jan 11, 3:30 PM)29.56 "Hg (Jan 11, 3:30 AM)
Average35 °F84%30.06 "Hg
* Reported Jan 10 8:00 PM — Jan 25 8:00 PM, Tiraspol, Weather by CustomWeather, © 2014

Note: Actual official high and low records may vary slightly from our data, if they occured in-between our weather recording intervals... More about our weather records

Advertising

Tiraspol weather history for previous 24 hours

 ConditionsComfort  
Time TempWeatherWind HumidityBarometerVisibility
8:00 PM
Jan 25
34 °FDrizzle. Fog.6 mph87%30.04 "Hg0 mi
7:30 PM34 °FDrizzle. Fog.6 mph87%30.04 "Hg0 mi
7:00 PM34 °FDrizzle. Fog.6 mph87%30.04 "Hg1 mi
6:30 PM34 °FFog.7 mph87%30.04 "Hg1 mi
6:00 PM34 °FFog.7 mph87%30.04 "Hg1 mi
5:30 PM34 °FFog.7 mph87%30.01 "Hg0 mi
5:00 PM34 °FFog.8 mph87%30.01 "Hg1 mi
4:30 PM34 °FFog.7 mph87%30.01 "Hg1 mi
4:00 PM34 °FFog.6 mph87%30.01 "Hg1 mi
3:30 PM34 °FFog.7 mph87%29.98 "Hg1 mi
3:00 PM34 °FFog.8 mph87%29.98 "Hg1 mi
2:30 PM34 °FFog.8 mph87%29.98 "Hg1 mi
2:00 PM32 °FFog.9 mph93%29.98 "HgN/A
1:30 PM32 °FIce fog.8 mph93%29.98 "Hg1 mi
1:00 PM32 °FIce fog.8 mph93%29.98 "Hg1 mi
12:30 PM32 °FIce fog.8 mph93%30.01 "Hg2 mi
12:00 PM32 °FIce fog.8 mph93%30.01 "Hg2 mi
11:30 AM32 °FIce fog.6 mph93%30.01 "Hg2 mi
11:00 AM32 °FLight rain. Ice fog.9 mph93%30.01 "Hg1 mi
10:30 AM32 °FLight rain. Ice fog.7 mph93%30.01 "Hg2 mi
10:00 AM32 °FSnow flurries. Ice fog.7 mph93%30.01 "Hg1 mi
9:30 AM32 °FSnow flurries. Ice fog.8 mph93%29.98 "Hg1 mi
9:00 AM32 °FMostly cloudy.8 mph93%29.98 "Hg5 mi
8:30 AM32 °FSnow flurries. Ice fog.7 mph93%29.98 "Hg2 mi
8:00 AM32 °FSnow flurries. Ice fog.8 mph93%29.98 "Hg2 mi
7:30 AM32 °FLight mixture of precip. Ice fog.8 mph93%29.98 "Hg2 mi
7:00 AM32 °FLight mixture of precip. Ice fog.8 mph93%29.98 "Hg3 mi
6:30 AM32 °FLight mixture of precip. Ice fog.7 mph93%29.98 "Hg2 mi
6:00 AM32 °FLight mixture of precip. Ice fog.8 mph93%29.95 "Hg1 mi
5:30 AM32 °FSnow showers. Ice fog.9 mph87%29.95 "Hg1 mi
5:00 AM32 °FSnow showers. Ice fog.9 mph87%29.95 "Hg1 mi
4:30 AM32 °FSnow flurries. Ice fog.8 mph87%29.95 "Hg1 mi
4:00 AM32 °FSnow showers. Ice fog.8 mph87%29.95 "Hg1 mi
3:30 AM32 °FSnow showers. Ice fog.8 mph87%29.95 "Hg1 mi
3:00 AM32 °FSnow flurries. Ice fog.9 mph87%29.98 "Hg2 mi
2:30 AM32 °FSnow flurries. Ice fog.12 mph93%29.98 "Hg2 mi
2:00 AM32 °FSnow flurries. Ice fog.10 mph87%29.98 "Hg2 mi
1:30 AM32 °FSnow flurries. Ice fog.10 mph87%29.98 "Hg1 mi
1:00 AM32 °FLight freezing rain. Ice fog.13 mph87%29.98 "Hg1 mi
12:30 AM32 °FLight freezing rain. Ice fog.12 mph93%29.98 "Hg1 mi
12:00 AM32 °FLight freezing rain. Ice fog.14 mph93%29.98 "Hg1 mi
11:30 PM
Jan 24
30 °FIce fog.15 mph93%29.98 "Hg1 mi
11:00 PM30 °FIce fog.13 mph93%29.98 "Hg1 mi
10:30 PM30 °FIce fog.17 mph93%29.98 "Hg1 mi
10:00 PM30 °FLight freezing rain. Ice fog.15 mph93%29.98 "Hg0 mi
9:30 PM30 °FLight freezing rain. Ice fog.16 mph93%29.98 "Hg1 mi
9:00 PM32 °FLight freezing rain. Ice fog.17 mph87%29.98 "Hg0 mi
Weather by CustomWeather, © 2014

See weather overviewHow to use our weather pages